Regional Weather Roundup
Issued by NWS New Orleans/Baton Rouge, LA

Home | Current Version | Previous Version | Text Only | Print | Product List | Glossary On
Versions: 1 2 3 4 5 6 7 8 9 10 11 12 13 14 15 16 17 18 19 20 21 22 23 24 25 26 27 28 29 30 31 32 33 34 35 36 37 38 39 40 41 42 43 44 45 46 47 48 49 50
000
ASUS44 KLIX 130210
RWRLIX
NEW ORLEANS REGIONAL WEATHER ROUNDUP
NATIONAL WEATHER SERVICE NEW ORLEANS LA
900 PM CDT SAT JUL 12 2014

NOTE: "FAIR" INDICATES FEW OR NO CLOUDS BELOW 12,000 FEET WITH NO
      SIGNIFICANT WEATHER AND/OR OBSTRUCTIONS TO VISIBILITY.
      SKY/WX - SKY CONDITION AND SIGNIFICANT WEATHER.
      TMP - AIR TEMPERATURE.     DP    - DEWPOINT TEMPERATURE.
      RH  - RELATIVE HUMIDITY.   PRES  - PRESSURE.
      HI  - HEAT INDEX.          WCI   - WIND CHILL INDEX.

*  THESE STATIONS ARE NOT NWS OR FAA STATIONS AND ARE NOT UNDER
   NWS QUALITY CONTROL.

LAZ038-040-048-061>063-065>067-069-130300-
SOUTHEAST LOUISIANA

CITY           SKY/WX    TMP DP  RH WIND       PRES   REMARKS
N.O. AUDUBON     N/A     84  75  75 MISG        N/A
N.O. INTL ARPT MOCLDY    83  73  72 CALM      30.07R
N.O. LAKEFRONT PTCLDY    85  73  67 CALM      30.07F
N.O. DOWNTOWN*   N/A     84  72  65 NE6       30.07S
SLIDELL        PTCLDY    76  72  87 CALM      30.06F
BATON ROUGE    MOCLDY    84  75  74 N3        30.07R THUNDER
BOOTHVILLE     PTCLDY    83  75  77 CALM      30.06F
BELLE CHASSE   MOCLDY    82  69  64 S3        30.05F
BOGALUSA*        N/A     81  72  74 CALM      30.08S
GALLIANO*      NOT AVBL
NEW ROADS*       N/A     80  76  88 CALM      30.07R
GONZALES*        N/A     80  78  93 CALM      30.06R
HAMMOND*       PTCLDY    81  73  78 CALM      30.09R
HOUMA*         MOCLDY    83  72  70 CALM      30.07R
PORT FOURCHON* CLEAR     86  73  66 SW3       30.08F

$$

MSZ070-080>082-130300-
SOUTHERN MISSISSIPPI

CITY           SKY/WX    TMP DP  RH WIND       PRES   REMARKS
MCCOMB         CLEAR     79  74  84 CALM      30.08S
GULFPORT       CLEAR     82  75  79 CALM      30.06R
BILOXI         NOT AVBL
PASCAGOULA     PTCLDY    79  74  84 CALM      30.07S

$$

COASTAL OBSERVATIONS
LAKE AND NEARSHORE STATIONS

STATION/POSITION TIME  TEMP    WIND        PRES    WAVE
                       AIR SEA DIR/SP/G            HT/PER
                 (UTC) (F)     (DEG/KT/KT) (MB)    (FT/S)
PASCAGOULA       0200   85     230/  7/  8 1017.9
WAVELAND YACHT   0200   81     320/  3/  4 1017.6
GRAND ISLE       0200   86 90  140/  2/  2 1018.7
SOUTHWEST PASS   0200   84 85  200/  3/  4 1018.6
NEW CANAL        0200   85 86   60/  6/  7 1018.5
SHELL BEACH      0200   84 86  180/  3/  3 1017.8

OFFSHORE STATIONS

STATION/POSITION TIME  TEMP    WIND        PRES    WAVE
                       AIR SEA DIR/SP/G            HT/PER
                 (UTC) (F)     (DEG/KT/KT) (MB)    (FT/S)
64 S DAUPHIN ISL 0053   83 88  220/  4/  6 1018.6

$$



USA.gov is the U.S. government's official web portal to all federal, state and local government web resources and services.